Tracking 20942 objects as of 10-Jul-2020
HD Live streaming from Space Station
objects crossing your sky now

THORAD DELTA 1 DEB

Track THORAD DELTA 1 DEB now!
10-day predictions


NORAD ID: 8404
Int'l Code: 1974-089CG
Perigee: 1,233.5 km
Apogee: 1,337.6 km
Inclination: 101.2 °
Period: 111.1 minutes
Semi major axis: 7656 km
RCS: 0.0827 m2 (small)
Launch date: November 15, 1974
Source: United States (US)
Launch site: AIR FORCE WESTERN TEST RANGE (AFWTR)

Note: This is SATELLITE DEBRIS
aabbcc
Your satellite tracking list
Your tracking list is empty




NASA's NSSDC Master Catalog

Two Line Element Set (TLE):
1  8404U 74089CG  20192.09902167  .00000551  00000-0  20858-2 0  9998
2  8404 101.1692 140.6654 0067983 289.5470  84.3329 12.95835954116897
Source of the keplerian elements: AFSPC